Flag for Germany Weather past 2 weeks in Koblenz, Rhineland-Palatinate, Germany

Now
57 °F

Passing clouds.


Feels Like: 56 °F
Forecast: 58 / 77 °F
Wind: 7 mph from Northwest

Location: Hahn

Current Time: Jul 11, 2014 at 2:30:19 AM

Latest Report: Jul 11, 2014 at 1:50 AM


Visibility: 1 mi

Pressure: 29.92 "Hg

Humidity: 100%

Dew point: 57 °F

Location of KoblenzLocation

Historic Weather in Koblenz — Graph

°F

Koblenz temperature yesterday

Maximum temperature yesterday: 70 °F (at 5:50 PM)
Minimum temperature yesterday: 54 °F (at 12:20 AM)
Average temperature yesterday: 59 °F

Past Weeks' High & Low Weather Summary

 TemperatureHumidityPressure
High81 °F (Jul 6, 5:20 PM)100% (Jun 28, 5:50 PM)30.24 "Hg (Jun 28, 5:50 PM)
Low46 °F (Jun 26, 4:50 AM)30% (Jun 26, 5:20 PM)29.71 "Hg (Jun 29, 3:50 AM)
Average59 °F73%29.96 "Hg
* Reported Jun 26 1:20 AM — Jul 11 1:20 AM, Koblenz, Weather by CustomWeather, © 2014

Note: Actual official high and low records may vary slightly from our data, if they occured in-between our weather recording intervals... More about our weather records

Advertising

Koblenz weather history for previous 24 hours

 ConditionsComfort  
Time TempWeatherWind HumidityBarometerVisibility
1:20 AM
Jul 11
57 °FLight rain. Passing clouds.8 mph100%29.92 "Hg1 mi
12:50 AM57 °FRain. Partly cloudy.10 mph100%29.92 "Hg1 mi
12:20 AM57 °FRain showers. Passing clouds.12 mph100%29.95 "Hg3 mi
12:04 AM57 °FStrong thunderstorms. Partly cloudy.8 mph100%29.95 "Hg3 mi
11:41 PM
Jul 10
57 °FThunderstorms. Partly cloudy.13 mph100%29.95 "Hg2 mi
11:20 PM59 °FThunderstorms. Partly cloudy.3 mph94%29.92 "HgN/A
10:50 PM59 °FThunderstorms. Passing clouds.6 mph94%29.92 "HgN/A
10:20 PM57 °FStrong thunderstorms. Broken clouds.12 mph100%29.92 "Hg3 mi
9:57 PM61 °FThunderstorms. Partly sunny.15 mph88%29.92 "HgN/A
9:00 PM63 °FStrong thunderstorms. Broken clouds.12 mph77%29.89 "HgN/A
8:50 PM63 °FStrong thunderstorms. Broken clouds.9 mph77%29.89 "HgN/A
8:20 PM68 °FThunderstorms. Broken clouds.5 mph83%29.89 "HgN/A
7:56 PM70 °FThunderstorms. Broken clouds.9 mph73%29.89 "HgN/A
7:20 PM68 °FSprinkles. Scattered clouds.7 mph78%29.89 "HgN/A
6:50 PM70 °FScattered clouds.12 mph73%29.86 "HgN/A
6:20 PM70 °FScattered clouds.8 mph73%29.89 "HgN/A
5:50 PM70 °FScattered clouds.8 mph73%29.89 "HgN/A
5:20 PM68 °FPassing clouds.7 mph78%29.89 "HgN/A
4:50 PM66 °FPartly sunny.5 mph78%29.89 "HgN/A
4:20 PM66 °FBroken clouds.6 mph78%29.89 "HgN/A
3:50 PM66 °FBroken clouds.7 mph78%29.89 "HgN/A
3:20 PM64 °FScattered clouds.9 mph83%29.86 "HgN/A
2:50 PM63 °FBroken clouds.7 mph83%29.86 "HgN/A
2:20 PM61 °FPartly sunny.7 mph88%29.86 "HgN/A
1:50 PM61 °FPartly sunny.8 mph88%29.86 "HgN/A
1:20 PM61 °FBroken clouds.9 mph88%29.86 "HgN/A
12:50 PM59 °FPartly sunny.10 mph88%29.86 "HgN/A
12:20 PM59 °FBroken clouds.8 mph88%29.83 "HgN/A
11:50 AM57 °FBroken clouds.8 mph94%29.83 "HgN/A
11:20 AM57 °FBroken clouds.8 mph100%29.83 "HgN/A
10:50 AM57 °FBroken clouds.9 mph94%29.83 "HgN/A
10:20 AM55 °FBroken clouds.8 mph100%29.83 "HgN/A
9:50 AM54 °FPartly sunny.7 mph100%29.80 "HgN/A
9:20 AM54 °FLight rain. Partly sunny.7 mph100%29.80 "HgN/A
8:50 AM54 °FPartly sunny.6 mph100%29.80 "Hg4 mi
8:20 AM54 °FFog.6 mph100%29.77 "Hg1 mi
8:00 AM54 °FFog.5 mph100%29.77 "Hg0 mi
7:54 AM54 °FFog.5 mph100%29.77 "Hg0 mi
7:20 AM54 °FFog.3 mph100%29.77 "Hg1 mi
6:52 AM54 °FFog.1 mph100%29.77 "Hg0 mi
6:20 AM54 °FFog.3 mph100%29.77 "Hg0 mi
5:50 AM54 °FFog.3 mph100%29.77 "Hg0 mi
5:20 AM54 °FFog.3 mph100%29.74 "Hg0 mi
4:50 AM54 °FFog.5 mph100%29.74 "Hg0 mi
4:20 AM54 °FFog.2 mph100%29.74 "Hg0 mi
3:20 AM54 °FFog.2 mph100%29.74 "Hg1 mi
2:50 AM54 °FFog.1 mph100%29.74 "Hg1 mi
2:20 AM54 °FFog.1 mph100%29.74 "Hg1 mi
Weather by CustomWeather, © 2014

See weather overviewHow to use our weather pages